RYR45ER LEBL-LZIB

Flight info

Callsign RYR45ER
Flight time N/A
Altitude 36000
Route AGENA DCT BODEQ DCT LUMAS DCT NIBIK DCT STP DCT RAPED DCT PIGOS DCT EKSID DCT NOSTA DCT EGHIN DCT MALUG DCT NIGSI DCT BEGLA DCT KUVEX
Aircraft B738/M-SDE2E3FGHIRWXY/LB1

Departure

Time 2026-05-05 06:08
Airport Josep Tarradellas Barcelona-El Prat Airport (LEBL)

Arrival

Time N/A
Airport M. R. Štefánik Airport (LZIB)
Time Latitude Longitude Altitude Speed Heading
2026-05-05 05:59 41.30330 2.08297 19 ft 0 kts 351°
2026-05-05 06:01 41.30324 2.08299 19 ft 2 kts 351°
2026-05-05 06:02 41.30304 2.08302 19 ft 3 kts 355°
2026-05-05 06:02 41.30284 2.08304 19 ft 3 kts 358°
2026-05-05 06:02 41.30264 2.08304 20 ft 3 kts
2026-05-05 06:02 41.30245 2.08303 20 ft 2 kts
2026-05-05 06:03 41.30237 2.08302 20 ft 1 kts
2026-05-05 06:05 41.30244 2.08304 20 ft 7 kts 12°
2026-05-05 06:05 41.30277 2.08404 20 ft 14 kts 91°
2026-05-05 06:05 41.30268 2.08525 19 ft 13 kts 73°
2026-05-05 06:06 41.30328 2.08658 20 ft 21 kts 83°
2026-05-05 06:06 41.30358 2.08854 17 ft 25 kts 86°
2026-05-05 06:06 41.30340 2.09084 17 ft 25 kts 73°
2026-05-05 06:06 41.30452 2.09225 20 ft 23 kts 80°
2026-05-05 06:07 41.30506 2.09432 22 ft 26 kts 70°
2026-05-05 06:07 41.30561 2.09667 19 ft 26 kts 95°
2026-05-05 06:07 41.30467 2.09750 20 ft 20 kts 160°
2026-05-05 06:07 41.30346 2.09709 18 ft 20 kts 244°
2026-05-05 06:08 41.30206 2.09303 16 ft 93 kts 246°
2026-05-05 06:08 41.29833 2.08200 112 ft 162 kts 248°
2026-05-05 06:08 41.29292 2.06781 865 ft 186 kts 249°
2026-05-05 06:08 41.28722 2.05083 1586 ft 214 kts 250°
2026-05-05 06:09 41.28088 2.03179 2066 ft 232 kts 249°
2026-05-05 06:09 41.27425 2.01216 2739 ft 238 kts 247°
2026-05-05 06:09 41.26746 1.99223 3710 ft 236 kts 246°
2026-05-05 06:09 41.25863 1.97365 4479 ft 247 kts 223°
2026-05-05 06:10 41.24301 1.96288 5111 ft 260 kts 195°
2026-05-05 06:10 41.22690 1.95400 5878 ft 264 kts 218°
2026-05-05 06:10 41.21266 1.93864 6827 ft 264 kts 220°
2026-05-05 06:10 41.20845 1.93428 7098 ft 264 kts 219°
2026-05-05 06:11 41.19267 1.92131 7907 ft 273 kts 200°
2026-05-05 06:11 41.17361 1.91941 8724 ft 281 kts 173°
2026-05-05 06:11 41.15519 1.92863 9535 ft 291 kts 150°
2026-05-05 06:11 41.14680 1.93758 9945 ft 296 kts 137°
2026-05-05 06:12 41.13523 1.96086 10498 ft 317 kts 115°
2026-05-05 06:12 41.13087 1.99087 10689 ft 347 kts 93°
2026-05-05 06:12 41.13408 2.02366 10878 ft 372 kts 76°
2026-05-05 06:12 41.13703 2.03676 10950 ft 382 kts 72°
2026-05-05 06:13 41.14604 2.06820 11462 ft 391 kts 69°
2026-05-05 06:13 41.15676 2.10161 12157 ft 396 kts 68°
2026-05-05 06:13 41.16768 2.13551 12805 ft 401 kts 68°
2026-05-05 06:13 41.17304 2.15248 13129 ft 404 kts 69°
2026-05-05 06:14 41.18206 2.18175 13695 ft 408 kts 69°
2026-05-05 06:14 41.19256 2.21687 14344 ft 412 kts 70°
2026-05-05 06:14 41.20298 2.25258 14956 ft 418 kts 70°
2026-05-05 06:14 41.20636 2.26433 15152 ft 419 kts 70°
2026-05-05 06:15 41.21724 2.30242 15803 ft 423 kts 70°
2026-05-05 06:15 41.22764 2.33914 16428 ft 427 kts 71°
2026-05-05 06:15 41.23814 2.37635 17012 ft 432 kts 71°
2026-05-05 06:15 41.24511 2.40115 17376 ft 435 kts 71°
2026-05-05 06:16 41.25126 2.42305 17707 ft 437 kts 71°
2026-05-05 06:16 41.26192 2.46103 18242 ft 442 kts 71°
2026-05-05 06:16 41.27273 2.49957 18763 ft 447 kts 71°
2026-05-05 06:16 41.27993 2.52527 19096 ft 450 kts 71°
2026-05-05 06:17 41.28166 2.53143 19173 ft 451 kts 71°